Location: Adamstown South Public School
(32.9318°S, 151.7012°E)
Time: 21:17:48
(UTC+00:00)

Cosmos 1943 - Pass Details

Date: 07 June 2020
Orbit: 834 x 850 km, 71.0° (Epoch: 06 July)

Event Time Altitude Azimuth Distance (km) Brightness Sun altitude
Rises 08:33:59 0° 331° (NNW) 3,370 7.0 -20.6°
Reaches altitude 10° 08:36:26 10° 327° (NNW) 2,443 6.2 -21.1°
Maximum altitude 08:41:58 60° 248° (WSW) 959 3.6 -22.2°
Enters shadow 08:46:15 17° 171° (S) 1,992 4.9 -23.1°
